• In Belarus
  • List of Countries
  • For 7 days
  • Water Temperature
  • Satellite Maps
  • Weather Map
  • Weather Widgets
  • user-avatar
    Login

    Hourly Weather Kitzbuhel

    Today, 23 October, Monday

    Time Temperature Precipitation Wind Pressure Humidity
    00:00 +2°C° 0.9 mm 3 mps 675 mmHg 95%
    01:00 +2°C° 0.9 mm 3 mps 675 mmHg 95%
    02:00 +2°C° 1 mm 3 mps 675 mmHg 96%
    03:00 +2°C° 1 mm 3 mps 675 mmHg 96%
    04:00 +1°C° 1 mm 3 mps 675 mmHg 96%
    05:00 +1°C° 0.9 mm 3 mps 675 mmHg 96%
    06:00 +1°C° 0.9 mm 3 mps 675 mmHg 96%
    07:00 +2°C° 0.9 mm 2 mps 676 mmHg 96%
    08:00 +2°C° 0.7 mm 3 mps 676 mmHg 95%
    09:00 +2°C° 0.7 mm 3 mps 676 mmHg 94%
    10:00 +3°C° 0.7 mm 3 mps 676 mmHg 93%
    11:00 +3°C° 0.7 mm 3 mps 676 mmHg 93%
    12:00 +3°C° 0.7 mm 3 mps 676 mmHg 92%
    13:00 +3°C° 0.7 mm 3 mps 676 mmHg 92%
    14:00 +3°C° 0.8 mm 3 mps 677 mmHg 93%
    15:00 +3°C° 0.8 mm 3 mps 677 mmHg 93%
    16:00 +4°C° 0.8 mm 2 mps 677 mmHg 94%
    17:00 +4°C° 1.1 mm 2 mps 677 mmHg 95%
    18:00 +4°C° 1.1 mm 2 mps 678 mmHg 95%
    19:00 +3°C° 1.1 mm 2 mps 678 mmHg 96%
    20:00 +3°C° 1.4 mm 2 mps 679 mmHg 96%
    21:00 +4°C° 1.4 mm 2 mps 679 mmHg 96%
    22:00 +4°C° 1.4 mm 2 mps 679 mmHg 96%
    23:00 +4°C° 0.9 mm 2 mps 680 mmHg 97%

    Tomorrow, 24 October, Tuesday

    Time Temperature Precipitation Wind Pressure Humidity
    00:00 +4°C° 0.9 mm 2 mps 680 mmHg 97%
    01:00 +4°C° 0.9 mm 2 mps 680 mmHg 97%
    02:00 +4°C° 0.7 mm 2 mps 680 mmHg 97%
    03:00 +4°C° 0.7 mm 2 mps 680 mmHg 97%
    04:00 +4°C° 0.7 mm 2 mps 681 mmHg 97%
    05:00 +3°C° 0.3 mm 2 mps 681 mmHg 97%
    06:00 +3°C° 0.3 mm 2 mps 681 mmHg 97%
    07:00 +3°C° 0.3 mm 2 mps 681 mmHg 96%
    08:00 +4°C° 0.1 mm 2 mps 681 mmHg 95%
    09:00 +5°C° 0.1 mm 2 mps 681 mmHg 93%
    10:00 +6°C° 0.1 mm 2 mps 681 mmHg 92%
    11:00 +7°C° 0 mm 2 mps 681 mmHg 91%
    12:00 +7°C° 0 mm 2 mps 681 mmHg 91%
    13:00 +7°C° 0 mm 2 mps 681 mmHg 90%
    14:00 +7°C° 0 mm 2 mps 681 mmHg 91%
    15:00 +7°C° 0 mm 2 mps 681 mmHg 92%
    16:00 +7°C° 0 mm 2 mps 681 mmHg 93%
    17:00 +6°C° 0 mm 2 mps 682 mmHg 93%
    18:00 +6°C° 0 mm 2 mps 682 mmHg 93%
    19:00 +5°C° 0 mm 2 mps 682 mmHg 93%
    20:00 +5°C° 0 mm 2 mps 682 mmHg 93%
    21:00 +5°C° 0 mm 2 mps 683 mmHg 92%
    22:00 +5°C° 0 mm 2 mps 683 mmHg 92%
    23:00 +5°C° 0 mm 2 mps 683 mmHg 92%

    Day after tomorrow, 25 October, Wednesday

    Time Temperature Precipitation Wind Pressure Humidity
    00:00 +5°C° 0 mm 2 mps 683 mmHg 92%
    01:00 +5°C° 0 mm 2 mps 683 mmHg 92%
    02:00 +5°C° 0 mm 2 mps 683 mmHg 91%
    03:00 +5°C° 0 mm 2 mps 682 mmHg 90%
    04:00 +5°C° 0 mm 2 mps 682 mmHg 89%
    05:00 +5°C° 0 mm 2 mps 682 mmHg 87%
    06:00 +5°C° 0 mm 2 mps 682 mmHg 86%
    07:00 +5°C° 0 mm 2 mps 682 mmHg 85%
    08:00 +7°C° 0 mm 1 mps 683 mmHg 85%
    09:00 +9°C° 0 mm 1 mps 683 mmHg 85%
    10:00 +11°C° 0 mm 1 mps 683 mmHg 86%
    11:00 +12°C° 0 mm 1 mps 683 mmHg 84%
    12:00 +12°C° 0 mm 0 mps 683 mmHg 83%
    13:00 +13°C° 0 mm 0 mps 684 mmHg 81%
    14:00 +12°C° 0 mm 0 mps 683 mmHg 84%
    15:00 +11°C° 0 mm 0 mps 683 mmHg 86%
    16:00 +12°C° 0 mm 1 mps 683 mmHg 88%
    17:00 +10°C° 0 mm 1 mps 683 mmHg 87%
    18:00 +9°C° 0 mm 1 mps 683 mmHg 87%
    19:00 +7°C° 0 mm 2 mps 683 mmHg 87%
    20:00 +7°C° 0 mm 2 mps 683 mmHg 84%
    21:00 +7°C° 0 mm 2 mps 683 mmHg 82%
    22:00 +6°C° 0 mm 2 mps 684 mmHg 79%
    23:00 +6°C° 0 mm 2 mps 684 mmHg 78%

    26 October, Thursday

    Time Temperature Precipitation Wind Pressure Humidity
    00:00 +6°C° 0 mm 2 mps 684 mmHg 77%
    01:00 +6°C° 0 mm 2 mps 684 mmHg 76%
    02:00 +6°C° 0 mm 2 mps 684 mmHg 75%
    03:00 +6°C° 0 mm 2 mps 683 mmHg 75%
    04:00 +6°C° 0 mm 2 mps 683 mmHg 74%
    05:00 +6°C° 0 mm 2 mps 683 mmHg 73%
    06:00 +6°C° 0 mm 2 mps 683 mmHg 73%
    07:00 +6°C° 0 mm 2 mps 683 mmHg 72%
    08:00 +9°C° 0 mm 1 mps 684 mmHg 74%
    09:00 +11°C° 0 mm 1 mps 684 mmHg 76%
    10:00 +13°C° 0 mm 1 mps 684 mmHg 78%
    11:00 +14°C° 0 mm 1 mps 684 mmHg 76%
    12:00 +15°C° 0 mm 1 mps 684 mmHg 74%
    13:00 +15°C° 0 mm 0 mps 684 mmHg 71%
    14:00 +14°C° 0 mm 0 mps 684 mmHg 74%
    15:00 +13°C° 0 mm 0 mps 683 mmHg 77%
    16:00 +13°C° 0 mm 0 mps 683 mmHg 80%
    17:00 +12°C° 0 mm 1 mps 683 mmHg 81%
    18:00 +11°C° 0 mm 1 mps 683 mmHg 82%
    19:00 +8°C° 0 mm 2 mps 683 mmHg 83%
    20:00 +8°C° 0 mm 2 mps 682 mmHg 81%
    21:00 +8°C° 0 mm 2 mps 682 mmHg 80%
    22:00 +8°C° 0 mm 2 mps 682 mmHg 78%
    23:00 +7°C° 0 mm 2 mps 682 mmHg 77%

    27 October, Friday

    Time Temperature Precipitation Wind Pressure Humidity
    00:00 +7°C° 0 mm 2 mps 682 mmHg 77%
    01:00 +7°C° 0 mm 2 mps 681 mmHg 76%
    02:00 +7°C° 0 mm 2 mps 681 mmHg 76%
    03:00 +7°C° 0 mm 2 mps 680 mmHg 76%
    04:00 +7°C° 0 mm 2 mps 680 mmHg 75%
    05:00 +7°C° 0 mm 2 mps 680 mmHg 76%
    06:00 +7°C° 0 mm 2 mps 680 mmHg 77%
    07:00 +7°C° 0 mm 2 mps 679 mmHg 78%
    08:00 +8°C° 0 mm 2 mps 679 mmHg 78%
    09:00 +10°C° 0 mm 2 mps 679 mmHg 78%
    10:00 +13°C° 0 mm 2 mps 679 mmHg 78%
    11:00 +13°C° 0 mm 2 mps 679 mmHg 78%
    12:00 +14°C° 0 mm 2 mps 678 mmHg 77%
    13:00 +13°C° 0 mm 3 mps 677 mmHg 77%
    14:00 +13°C° 0.9 mm 2 mps 677 mmHg 83%
    15:00 +10°C° 0.9 mm 2 mps 677 mmHg 89%
    16:00 +9°C° 0.9 mm 2 mps 676 mmHg 95%
    17:00 +8°C° 2.6 mm 2 mps 676 mmHg 96%
    18:00 +8°C° 2.6 mm 2 mps 677 mmHg 97%
    19:00 +7°C° 2.6 mm 2 mps 677 mmHg 98%
    20:00 +7°C° 1.6 mm 2 mps 677 mmHg 97%
    21:00 +6°C° 1.6 mm 2 mps 677 mmHg 97%
    22:00 +6°C° 1.6 mm 2 mps 677 mmHg 97%
    23:00 +5°C° 0.1 mm 2 mps 677 mmHg 97%

    28 October, Saturday

    Time Temperature Precipitation Wind Pressure Humidity
    00:00 +5°C° 0.1 mm 2 mps 677 mmHg 97%
    01:00 +5°C° 0.1 mm 2 mps 676 mmHg 97%
    02:00 +4°C° 0 mm 2 mps 676 mmHg 97%
    03:00 +4°C° 0 mm 2 mps 675 mmHg 97%
    04:00 +4°C° 0 mm 2 mps 675 mmHg 96%
    05:00 +4°C° 0.3 mm 2 mps 675 mmHg 96%
    06:00 +4°C° 0.3 mm 2 mps 675 mmHg 95%
    07:00 +4°C° 0.3 mm 2 mps 674 mmHg 95%
    08:00 +3°C° 0.6 mm 3 mps 674 mmHg 93%
    09:00 +4°C° 0.6 mm 3 mps 674 mmHg 91%
    10:00 +4°C° 0.6 mm 4 mps 674 mmHg 89%
    11:00 +4°C° 0.6 mm 4 mps 674 mmHg 88%
    12:00 +4°C° 0.6 mm 4 mps 673 mmHg 87%
    13:00 +4°C° 0.6 mm 4 mps 673 mmHg 86%
    14:00 +3°C° 1 mm 4 mps 673 mmHg 88%
    15:00 +3°C° 1 mm 4 mps 672 mmHg 90%
    16:00 +2°C° 1 mm 3 mps 672 mmHg 92%
    17:00 +1°C° 1.8 mm 4 mps 672 mmHg 93%
    18:00 +1°C° 1.8 mm 4 mps 673 mmHg 94%
    19:00 +1°C° 1.8 mm 4 mps 673 mmHg 95%
    20:00 +1°C° 2.4 mm 4 mps 673 mmHg 95%
    21:00 +1°C° 2.4 mm 4 mps 674 mmHg 96%
    22:00 +1°C° 2.4 mm 4 mps 674 mmHg 96%
    23:00 +1°C° 1 mm 4 mps 675 mmHg 96%

    29 October, Sunday

    Time Temperature Precipitation Wind Pressure Humidity
    00:00 +1°C° 1 mm 4 mps 675 mmHg 96%
    01:00 +1°C° 1 mm 3 mps 676 mmHg 96%
    02:00 +1°C° 0.6 mm 3 mps 676 mmHg 96%
    03:00 +1°C° 0.6 mm 3 mps 676 mmHg 96%
    04:00 +1°C° 0.6 mm 3 mps 677 mmHg 96%
    05:00 +1°C° 0.3 mm 3 mps 677 mmHg 96%
    06:00 +1°C° 0.3 mm 3 mps 678 mmHg 96%
    07:00 +1°C° 0.3 mm 3 mps 678 mmHg 96%
    08:00 +2°C° 0 mm 3 mps 678 mmHg 94%
    09:00 +2°C° 0 mm 3 mps 678 mmHg 92%
    10:00 +3°C° 0 mm 3 mps 679 mmHg 90%
    11:00 +5°C° 0 mm 2 mps 678 mmHg 89%
    12:00 +6°C° 0 mm 2 mps 678 mmHg 87%
    13:00 +6°C° 0 mm 2 mps 678 mmHg 85%
    14:00 +6°C° 0 mm 2 mps 678 mmHg 87%
    15:00 +6°C° 0 mm 2 mps 677 mmHg 88%
    16:00 +5°C° 0 mm 2 mps 677 mmHg 89%
    17:00 +4°C° 0 mm 2 mps 677 mmHg 89%
    18:00 +3°C° 0 mm 2 mps 677 mmHg 89%
    19:00 +2°C° 0 mm 2 mps 677 mmHg 89%
    20:00 +2°C° 0 mm 2 mps 677 mmHg 90%
    21:00 +2°C° 0 mm 2 mps 677 mmHg 90%
    22:00 +2°C° 0 mm 2 mps 677 mmHg 90%
    23:00 +2°C° 0 mm 2 mps 677 mmHg 89%
    Show more